Regional Weather Roundup
Issued by NWS Memphis, TN

Home | Current Version | Previous Version | Text Only | Print | Product List | Glossary On
Versions: 1 2 3 4 5 6 7 8 9 10 11 12 13 14 15 16 17 18 19 20 21 22 23 24 25 26 27 28 29 30 31 32 33 34 35 36 37 38 39 40 41 42 43 44 45 46 47 48 49 50
000
ASUS44 KMEG 200410
RWRMEG
MEMPHIS CWA HOURLY WEATHER ROUNDUP
NATIONAL WEATHER SERVICE MEMPHIS TN
1000 PM CST THU JAN 19 2017

...WEST TENNESSEE...

CITY           SKY/WX    TMP DP  RH WIND       PRES   REMARKS
MEMPHIS INTL   CLOUDY    57  57 100 SW5       29.72F
NWS MEMPHIS      N/A     58 N/A N/A MISG        N/A
JACKSON        CLOUDY    55  55 100 S6        29.70F FOG
BOLIVAR        MOCLDY    57  55  94 S3        29.71R
DYERSBURG      CLOUDY    57  54  88 W3        29.70S
UNION CITY     MOCLDY   N/A N/A N/A CALM      29.69R
PARIS          CLOUDY    55  55 100 SW8       29.70R
HUNTINGDON     CLOUDY    59  57  94 CALM      29.69R


...EASTERN ARKANSAS...

CITY           SKY/WX    TMP DP  RH WIND       PRES   REMARKS
JONESBORO      CLOUDY    53  52  96 SW12      29.69S FOG
WEST MEMPHIS   PTCLDY    54  32  43 S7        29.71F
BATESVILLE     CLOUDY    50  48  93 S5        29.69R
NEWPORT        FOG       50  50 100 MISG      29.70R VSB 1
WALNUT RIDGE   CLOUDY    48  46  93 S5        29.67F
BLYTHEVILLE    CLOUDY    56  54  93 SW9       29.70S
SEARCY         LGT RAIN  52  52 100 S5        29.72S FOG
STUTTGART      CLOUDY    55  48  76 S8        29.74R
PINE BLUFF     CLOUDY    56  55  97 S7        29.73S
MONTICELLO     CLOUDY    57  56  96 S5        29.74S


...NORTH MISSISSIPPI...

CITY           SKY/WX    TMP DP  RH WIND       PRES   REMARKS
TUPELO         FOG       57  56  96 SE8       29.75R VSB 1/2
OXFORD         CLOUDY    55  55 100 SW7       29.78S
BATESVILLE     PTCLDY    55  54  95 S3        29.76S
TUNICA         CLOUDY    54  54 100 SW13      29.75S
CLARKSDALE     CLEAR     55  55 100 S6        29.75S
CORINTH        PTCLDY    55  55 100 S5        29.72R
GREENWOOD      MOCLDY    56  54  93 S3        29.78R
STARKVILLE     FOG       59  59 100 CALM      29.78R VSB<1/4
GOLDEN TRIANGL CLOUDY    61  57  88 S3        29.73R


...SOUTHEAST MISSOURI...

CITY           SKY/WX    TMP DP  RH WIND       PRES   REMARKS
KENNETT        MOCLDY    54  54 100 SW6       29.68S
WEST PLAINS    FOG       48  48 100 SE6       29.65F VSB 1/2
POPLAR BLUFF   CLOUDY    50  50 100 SW6       29.66F
CAPE GIRARDEAU CLOUDY    56  53  90 SW12      29.65F


...NORTHWEST ALABAMA...

CITY           SKY/WX    TMP DP  RH WIND       PRES   REMARKS
MUSCLE SHOALS  CLOUDY    58  56  93 S5        29.74F


...MIDDLE TENNESSEE...

CITY           SKY/WX    TMP DP  RH WIND       PRES   REMARKS
NASHVILLE      LGT RAIN  59  57  93 SW5       29.71S
CLARKSVILLE    RAIN      55  54  96 CALM      29.70S VSB 1
COLUMBIA       CLOUDY   N/A N/A N/A S5        29.71F


...WESTERN KENTUCKY...

CITY           SKY/WX    TMP DP  RH WIND       PRES   REMARKS
PADUCAH        LGT RAIN  59  56  89 SW6       29.67R
FORT CAMPBELL  DRIZZLE   56  56 100 S3        29.69F


...CENTRAL ARKANSAS...

CITY           SKY/WX    TMP DP  RH WIND       PRES   REMARKS
LITTLE ROCK    CLOUDY    53  53 100 SW8       29.72R FOG


SKY/WX REPORTED AS FAIR MEANS FEW OR NO CLOUDS BELOW
12 THOUSAND FEET.





USA.gov is the U.S. government's official web portal to all federal, state and local government web resources and services.